TimeCST,TemperatureF,Dew PointF,Humidity,Sea Level PressureIn,VisibilityMPH,Wind Direction,Wind SpeedMPH,Gust SpeedMPH,PrecipitationIn,Events,Conditions,WindDirDegrees,DateUTC
12:45 AM,46.4,33.8,62,30.37,7.0,Calm,Calm,-,N/A,,Clear,0,2013-02-20 06:45:00
1:45 AM,42.8,32.0,66,30.35,7.0,ENE,3.5,-,N/A,,Clear,60,2013-02-20 07:45:00
2:45 AM,39.2,32.0,75,29.84,7.0,NE,3.5,-,N/A,,Clear,40,2013-02-20 08:45:00
3:45 AM,35.6,30.2,81,30.32,7.0,ESE,4.6,-,N/A,,Clear,120,2013-02-20 09:45:00
4:45 AM,39.2,32.0,75,30.32,7.0,ESE,4.6,-,N/A,,Clear,120,2013-02-20 10:45:00
5:45 AM,37.4,32.0,81,29.91,7.0,Calm,Calm,-,N/A,,Clear,0,2013-02-20 11:45:00
6:45 AM,35.6,30.2,81,30.35,7.0,Calm,Calm,-,N/A,,Clear,0,2013-02-20 12:45:00
7:40 AM,39.2,32.0,75,30.38,6.0,East,3.5,-,N/A,,Clear,90,2013-02-20 13:40:00
8:44 AM,48.2,33.8,58,29.93,7.0,Calm,Calm,-,N/A,,Clear,0,2013-02-20 14:44:00
9:40 AM,59.0,23.0,25,30.39,7.0,East,3.5,-,N/A,,Clear,100,2013-02-20 15:40:00
10:41 AM,64.4,21.2,19,30.38,7.0,SSE,8.1,-,N/A,,Partly Cloudy,160,2013-02-20 16:41:00
11:42 AM,68.0,15.8,13,29.81,7.0,SSE,10.4,-,N/A,,Partly Cloudy,150,2013-02-20 17:42:00
12:57 PM,69.8,17.6,14,30.31,7.0,South,13.8,-,N/A,,Mostly Cloudy,170,2013-02-20 18:57:00
1:40 PM,71.6,17.6,13,30.29,7.0,SSE,11.5,-,N/A,,Mostly Cloudy,160,2013-02-20 19:40:00
2:45 PM,71.6,17.6,13,29.75,7.0,SSE,15.0,-,N/A,,Mostly Cloudy,160,2013-02-20 20:45:00
3:42 PM,71.6,17.6,13,30.23,7.0,SSE,13.8,-,N/A,,Mostly Cloudy,150,2013-02-20 21:42:00
4:44 PM,69.8,19.4,15,30.22,7.0,South,13.8,-,N/A,,Mostly Cloudy,180,2013-02-20 22:44:00
5:48 PM,69.8,17.6,14,29.77,7.0,South,15.0,-,N/A,,Mostly Cloudy,180,2013-02-20 23:48:00
6:58 PM,62.6,32.0,32,30.25,7.0,South,11.5,-,N/A,,Mostly Cloudy,180,2013-02-21 00:58:00
7:42 PM,60.8,35.6,39,30.28,7.0,WSW,3.5,-,N/A,,Scattered Clouds,250,2013-02-21 01:42:00
8:42 PM,57.2,35.6,44,29.84,8.0,Calm,Calm,-,N/A,,Scattered Clouds,0,2013-02-21 02:42:00
9:45 PM,50.0,33.8,54,30.30,8.0,Calm,Calm,-,N/A,,Scattered Clouds,0,2013-02-21 03:45:00
10:45 PM,50.0,33.8,54,30.31,7.0,ENE,4.6,-,N/A,,Scattered Clouds,70,2013-02-21 04:45:00
11:45 PM,48.2,33.8,58,29.77,6.0,Calm,Calm,-,N/A,,Scattered Clouds,0,2013-02-21 05:45:00